Regional Weather Roundup
Issued by NWS Green Bay, WI

Home | Current Version | Previous Version | Graphics & Text | Print | Product List | Glossary Off
Versions: 1 2 3 4 5 6 7 8 9 10 11 12 13 14 15 16 17 18 19 20 21 22 23 24 25 26 27 28 29 30 31 32 33 34 35 36 37 38 39 40 41 42 43 44 45 46 47 48 49 50

000
ASUS43 KGRB 211810
RWRGRB

NORTH-CENTRAL AND NORTHEAST WISCONSIN REGIONAL WEATHER ROUNDUP
NATIONAL WEATHER SERVICE GREEN BAY WI
100 PM CDT SUN SEP 21 2014

WIZ005-009-010>012-018-019-211900-
NORTH CENTRAL WISCONSIN

CITY           SKY/WX    TMP DP  RH WIND       PRES   REMARKS
IRONWOOD       CLOUDY    48  39  71 N7        30.07R
MANITOWISH WTR CLOUDY    49  39  68 N14G20    30.06R
ARBOR VITAE    CLOUDY    52  42  69 N14G21    30.04R
EAGLE RIVER    CLOUDY    47  37  70 N15G23    30.03S
LAND O LAKES   CLOUDY    46  38  73 N18G25    30.05R
RHINELANDER    CLOUDY    50  39  66 N13G21    30.03R
PHILLIPS       CLOUDY    51  43  74 N12G20    30.06R
ANTIGO         CLOUDY    50  41  70 N21G26    30.01R
TOMAHAWK       PTSUNNY   53  41  63 NW12G24   30.04S
MERRILL        CLOUDY    53  41  64 N15G25    30.03R
$$

WIZ013-073-211900-
NORTHEAST WISCONSIN

CITY           SKY/WX    TMP DP  RH WIND       PRES   REMARKS
IRON MOUNTAIN  CLOUDY    50  39  66 N23G30    29.97R
MARINETTE      CLOUDY    55  43  62 N12G20    29.93R
OCONTO         CLOUDY    56  46  71 N14       29.94R
$$

WIZ017-030-035>037-045-211900-
CENTRAL WISCONSIN

CITY           SKY/WX    TMP DP  RH WIND       PRES   REMARKS
MEDFORD        PTSUNNY   55  44  64 N16       30.04R
WAUSAU         CLOUDY    54  41  61 N14G22    30.01R
MOSINEE        CLOUDY    54  43  66 NW18      30.03R
MARSHFIELD     PTSUNNY   59  44  57 N23G29    30.03R
WISC RAPIDS    PTSUNNY   59  43  55 NW17G24   30.03R
STEVENS POINT  CLOUDY    54  41  60 N14G26    30.02R
WAUPACA        PTSUNNY   58  43  56 N15G23    29.99R
SHAWANO        CLOUDY    55  42  61 N18G25    29.99R
CLINTONVILLE   CLOUDY    54  41  62 N12G21    29.99R
$$

WIZ038-039-048-051-211900-
FOX VALLEY

CITY           SKY/WX    TMP DP  RH WIND       PRES   REMARKS
NWS GREEN BAY  CLOUDY    57  47  69 NW15      29.96R
APPLETON       PTSUNNY   54  43  66 NW21G28   29.97R
OSHKOSH        PTSUNNY   58  46  64 N18G30    29.96R
FOND DU LAC    PTSUNNY   59  49  69 N26G32    29.97R
$$

WIZ022-050-052-211900-
EAST CENTRAL WISCONSIN

CITY           SKY/WX    TMP DP  RH WIND       PRES   REMARKS
STURGEON BAY   CLOUDY    54  43  66 N18G28    29.93R
MANITOWOC      CLOUDY    57  50  77 N17G26    29.92R
SHEBOYGAN      CLOUDY    61  48  62 N15       29.92R
$$

LMZ563-521-522-541>543-211900-
LAKESHORE

STATION/POSITION TIME  TEMP    WIND        PRES    VSBY  WAVE
                       AIR SEA DIR/SP/G                  HT/PER
                 (UTC) (F)     (DEG/KT/KT) (MB)    (MI)  (FT/S)
SHEBOYGAN LKSHOR 1800   56 51  350/ 17/ 19 1013.4R
KEWAUNEE LKSHORE 1800   57     350/ 11/ 20 1012.0R
NORTHPORT PIER   1800   51     350/ 26/ 33 1013.2R
N MID LAKE BUOY  1800   51 58  340/ 25/ 31 1011.4R         6/ 6
S GREEN BAY BUOY 1800   55     VRB 19/ 23  1014.8R
SISTER BAY LKSHO 1700          360/ 28/ 34   N/A
CHAMBERS ISLAND  1800   53     330/ 20/ 28 1013.5R
MENOMINEE LKSHOR 1800   54     340/ 16/ 24 1014.0R
$$



USA.gov is the U.S. government's official web portal to all federal, state and local government web resources and services.